Regional Weather Roundup
Issued by NWS

Home | Current Version | Previous Version | Text Only | Print | Product List | Glossary On
Versions: 1 2 3 4 5 6 7 8 9 10 11 12 13 14 15 16 17 18 19 20 21 22 23 24 25 26 27 28 29 30 31 32 33 34 35 36 37 38 39 40 41 42 43 44 45 46 47 48 49 50
000
ASUS43 KLSX 082207
RWRMO

WEATHER SUMMARY FOR MISSOURI
NATIONAL WEATHER SERVICE SPRINGFIELD MO
400 PM CST MON FEB 08 2016

NOTE: "FAIR" INDICATES FEW OR NO CLOUDS BELOW 12,000 FEET WITH NO
       SIGNIFICANT WEATHER AND/OR OBSTRUCTIONS TO VISIBILITY.
       CURRENT SKY AND/OR WEATHER CONDITIONS ARE NOT AVAILABLE FOR
       CHILLICOTHE AND FARMINGTON.

MOZ001>031-035>038-043-044-053-054-082300-
...NORTHERN AND WESTERN MISSOURI...

CITY           SKY/WX    TMP DP  RH WIND       PRES   REMARKS
KANSAS CTY INT PTSUNNY   31  16  54 N26G37    30.06R WCI  17
KANSAS C DTWN  CLOUDY    34  14  43 NW21G38   30.06R WCI  22
LEE`S SUMMIT   CLOUDY    32  14  47 NW28G43   30.06R WCI  18
ST JOSEPH      CLOUDY    31  16  54 N18G29    30.09R WCI  19
CHILLICOTHE      N/A     26  13  57 NW18G31   30.05R WCI  13
KIRKSVILLE     FLURRIES  22   9  57 NW20G26   29.98R WCI   7

$$
MOZ066>068-077>081-088>096-101>105-082300-
...SOUTHWEST MISSOURI...

CITY           SKY/WX    TMP DP  RH WIND       PRES   REMARKS
SPRINGFIELD    CLOUDY    33  13  43 NW24G35   30.01R WCI  20
JOPLIN         CLOUDY    39  16  39 NW24G33   30.10R WCI  28

$$
MOZ032>034-039>042-045>050-055>058-069>072-082300-
...CENTRAL MISSOURI...

CITY           SKY/WX    TMP DP  RH WIND       PRES   REMARKS
COLUMBIA       FLURRIES  26  14  60 NW22G35   29.97R WCI  12
JEFFERSON CITY CLOUDY    28  14  55 NW23G33   29.99R WCI  14
ROLLA          CLOUDY    26  16  65 NW22G28   29.93R WCI  12
SEDALIA        CLOUDY    28  16  60 NW25G35   30.04R WCI  13
WHITEMAN AFB   FLURRIES  29  17  60 NW21G30   30.03R WCI  16
WARRENSBURG    CLOUDY    30  21  69 NW13G21   30.06R WCI  20
OSAGE BEACH    CLOUDY    30  12  47 W14G36    30.00R WCI  20

$$
MOZ051-052-059>065-082300-
...EAST CENTRAL MISSOURI...

CITY           SKY/WX    TMP DP  RH WIND       PRES   REMARKS
ST LOUIS INTL  LGT SNOW  26  15  63 NW16G24   29.92R WCI  14
SPIRIT OF STL  LGT SNOW  26  16  65 NW18G24   29.93R WCI  13
ST CHARLES     LGT SNOW  24  17  74 NW18      29.93R WCI  10

$$
MOZ072>076-082>087-097>100-106>115-082300-
...SOUTH CENTRAL AND SOUTHEAST MISSOURI...

CITY           SKY/WX    TMP DP  RH WIND       PRES   REMARKS
CAPE GIRARDEAU CLOUDY    32  16  51 NW22G32   29.92R WCI  19
FARMINGTON     MIX PCPN  27  15  61 NW14G23   29.91R WCI  16
POPLAR BLUFF   CLOUDY    35  18  49 NW18G28   29.93R WCI  24
WEST PLAINS    FLURRIES  32  17  54 NW10G24   29.97R WCI  24

$$


USA.gov is the U.S. government's official web portal to all federal, state and local government web resources and services.